Regional Weather Roundup
Issued by NWS

Home | Current Version | Previous Version | Graphics & Text | Print | Product List | Glossary On
Versions: 1 2 3 4 5 6 7 8 9 10 11 12 13 14 15 16 17 18 19 20 21 22 23 24 25 26 27 28 29 30 31 32 33 34 35 36 37 38 39 40 41 42 43 44 45 46 47 48 49 50
000
ASUS44 KMEG 050100
RWRTN
TENNESSEE HOURLY STATE WEATHER ROUNDUP
NATIONAL WEATHER SERVICE MEMPHIS TN
800 PM CDT WED MAY 04 2016

TNZ002-004-019-021-049-052-054-088>092-050200-
WEST TENNESSEE

CITY           SKY/WX    TMP DP  RH WIND       PRES   REMARKS
MEMPHIS INTL   PTCLDY    69  44  40 N7        29.80R
NWS MEMPHIS      N/A     69 N/A N/A MISG        N/A
JACKSON        CLEAR     64  43  46 N10       29.80R
DYERSBURG      CLEAR     64  43  45 N12       29.81R
UNION CITY     CLEAR     61  45  55 N6        29.81R
LEXINGTON      CLEAR     63  39  42 N6        29.79R
$$

TNZ008-025-027-028-033-062-065-066-050200-
NORTH MIDDLE TENNESSEE

CITY           SKY/WX    TMP DP  RH WIND       PRES   REMARKS
NASHVILLE      PTCLDY    59  49  69 N8        29.78R
CLARKSVILLE    MOCLDY    58  41  53 N14       29.81R
COOKEVILLE     MOCLDY    52  52 100 CALM      29.76R
CROSSVILLE     CLOUDY    49  46  90 W3        29.77R
$$

TNZ061-075-076-078-094-096-097-050200-
SOUTH MIDDLE TENNESSEE

CITY           SKY/WX    TMP DP  RH WIND       PRES   REMARKS
TULLAHOMA      MOCLDY    54  52  94 CALM      29.79R
WINCHESTER     CLOUDY    54  50  87 CALM      29.79R
MCMINNVILLE    PTCLDY    52  52 100 SE3       29.78R
COLUMBIA       CLEAR    N/A N/A N/A CALM      29.77R
SHELBYVILLE    CLEAR     54  52  94 CALM      29.79R
$$

TNZ017-018-042-046-047-050200-
NORTHEAST TENNESSEE

CITY           SKY/WX    TMP DP  RH WIND       PRES   REMARKS
TRI CITIES     CLOUDY    53  46  77 S3        29.70R
$$

TNZ012-013-036-069-073-074-050200-
CENTRAL EAST TENNESSEE

CITY           SKY/WX    TMP DP  RH WIND       PRES   REMARKS
KNOXVILLE      CLOUDY    53  44  71 NW8       29.76R
OAK RIDGE      CLOUDY    51  48  89 E3        29.76F
GATLINBURG     MOCLDY    54  46  76 W6        29.73R
$$

TNZ083-085-099-050200-
SOUTHEAST TENNESSEE

CITY           SKY/WX    TMP DP  RH WIND       PRES   REMARKS
CHATTANOOGA    MOCLDY    56  54  93 CALM      29.76R
$$

SKY/WX REPORTED AS FAIR MEANS FEW OR NO CLOUDS BELOW
12 THOUSAND FEET.




USA.gov is the U.S. government's official web portal to all federal, state and local government web resources and services.